Location: Shenandoah County Park
(38.9356°N, 78.4524°W)
Time: 05:22:30
(UTC-04:00)

Explorer 11/Cluster Stage 4 - Pass Details

Date: 26 February 2024
Orbit: 465 x 1220 km, 28.8° (Epoch: 12 April)

Event Time Altitude Azimuth Distance (km) Brightness Sun altitude
Rises 04:33:44 0° 262° (W) 4,010 - -27.4°
Reaches altitude 10° 04:37:10 10° 252° (WSW) 2,957 - -26.8°
Maximum altitude 04:43:02 27° 198° (SSW) 1,813 - -25.6°
Exits shadow 04:43:20 27° 194° (SSW) 1,806 8.2 -25.6°
Drops below altitude 10° 04:48:06 10° 143° (SE) 2,527 9.5 -24.7°
Sets 04:50:49 0° 131° (SE) 3,331 10.4 -24.1°
